Weather History for Silver Bay, MN

Change the Weather History Date:

Saturday, May 25, 2013

  Actual Average Record
Temperature  
Mean Temperature 47 °F -  
Max Temperature 55 °F 60 °F 80 °F (2014)
Min Temperature 39 °F 35 °F 30 °F (2002)
Degree Days  
Heating Degree Days 18    
Moisture  
Dew Point 26 °F    
Average Humidity 43    
Maximum Humidity 65    
Minimum Humidity 28    
Precipitation  
Precipitation 0.04 in - - ()
Sea Level Pressure  
Sea Level Pressure 30.31 in    
Wind  
Wind Speed 5 mph (ENE)    
Max Wind Speed 15 mph    
Max Gust Speed 22 mph    
Visibility 10 miles    
Events      
Averages and records for this station are not official NWS values.
T = Trace of Precipitation, MM = Missing Value Source: NWS Daily Summary

Daily Weather History Graph

Daily Weather History Graph

Search for Another Location

Airport:

Trip Planner

Search our weather history database for the weather conditions in past years. The results will help you decide how hot, cold, wet, or windy it might be!

Date:

Astronomy

May. 25, 2013 Rise Set
Actual Time 5:18 AM CDT 8:47 PM CDT
Civil Twilight 4:40 AM CDT 9:25 PM CDT
Nautical Twilight 3:50 AM CDT 10:15 PM CDT
Astronomical Twilight 2:44 AM CDT 11:22 PM CDT
Moon 9:34 PM CDT (5/25) 5:47 AM CDT (5/25)
Length of Visible Light 16h 44m
Length of Day
15h 28m
Full, 100% of the Moon is Illuminated
May 25
Full
May 31
Last Quarter
Jun 8
New
Jun 16
First Quarter
Jun 23
Full

Hourly Weather History & Observations

Time (CDT) Temp. Windchill Dew Point Humidity Pressure Visibility Wind Dir Wind Speed Gust Speed Precip Events Conditions
12:13 AM 44.6 °F - 24.8 °F 46% 30.29 in 10.0 mi Calm Calm - N/A   Clear
12:33 AM 44.6 °F - 26.6 °F 49% 30.29 in 10.0 mi Calm Calm - N/A   Clear
12:53 AM 44.6 °F - 26.6 °F 49% 30.28 in 10.0 mi Calm Calm - N/A   Clear
1:13 AM 44.6 °F - 26.6 °F 49% 30.28 in 10.0 mi Calm Calm - N/A   Clear
1:33 AM 44.6 °F - 26.6 °F 49% 30.28 in 10.0 mi Calm Calm - N/A   Clear
1:53 AM 44.6 °F - 26.6 °F 49% 30.28 in 10.0 mi Calm Calm - N/A   Clear
2:13 AM 44.6 °F 42.2 °F 24.8 °F 46% 30.27 in 10.0 mi NE 4.6 mph - N/A   Clear
2:33 AM 44.6 °F - 24.8 °F 46% 30.28 in 10.0 mi Calm Calm - N/A   Clear
2:53 AM 44.6 °F - 26.6 °F 49% 30.28 in 10.0 mi Calm Calm - N/A   Clear
3:13 AM 42.8 °F - 26.6 °F 53% 30.28 in 10.0 mi Calm Calm - 0.01 in   Clear
3:33 AM 42.8 °F - 26.6 °F 53% 30.28 in 10.0 mi Calm Calm - 0.01 in   Clear
3:53 AM 42.8 °F - 26.6 °F 53% 30.28 in 10.0 mi Calm Calm - N/A   Clear
4:13 AM 41.0 °F - 26.6 °F 57% 30.28 in 10.0 mi Calm Calm - N/A   Clear
4:33 AM 39.2 °F 37.0 °F 28.4 °F 65% 30.28 in 10.0 mi NE 3.5 mph - N/A   Clear
4:53 AM 42.8 °F - 28.4 °F 57% 30.29 in 10.0 mi Calm Calm - N/A   Clear
5:13 AM 42.8 °F - 28.4 °F 57% 30.30 in 10.0 mi Calm Calm - N/A   Clear
5:33 AM 42.8 °F - 28.4 °F 57% 30.31 in 10.0 mi Calm Calm - N/A   Clear
5:53 AM 42.8 °F - 28.4 °F 57% 30.32 in 10.0 mi Calm Calm - N/A   Clear
6:13 AM 42.8 °F 37.5 °F 26.6 °F 53% 30.32 in 10.0 mi NE 9.2 mph - N/A   Clear
6:33 AM 44.6 °F 41.4 °F 26.6 °F 49% 30.33 in 10.0 mi NE 5.8 mph - N/A   Clear
6:53 AM 44.6 °F 40.7 °F 26.6 °F 49% 30.33 in 10.0 mi NE 6.9 mph - N/A   Mostly Cloudy
7:13 AM 44.6 °F 39.2 °F 26.6 °F 49% 30.33 in 10.0 mi ENE 10.4 mph - N/A   Overcast
7:33 AM 44.6 °F 40.2 °F 26.6 °F 49% 30.34 in 10.0 mi NE 8.1 mph 16.1 mph N/A   Mostly Cloudy
7:53 AM 46.4 °F 42.4 °F 26.6 °F 46% 30.34 in 10.0 mi ENE 8.1 mph - N/A   Scattered Clouds
8:13 AM 46.4 °F 42.4 °F 26.6 °F 46% 30.34 in 10.0 mi ENE 8.1 mph - 0.01 in   Clear
8:33 AM 48.2 °F - 28.4 °F 46% 30.33 in 10.0 mi East 11.5 mph - 0.01 in   Clear
8:53 AM 48.2 °F - 26.6 °F 43% 30.32 in 10.0 mi ENE 11.5 mph 16.1 mph N/A   Scattered Clouds
9:13 AM 48.2 °F - 28.4 °F 46% 30.32 in 10.0 mi ENE 11.5 mph 19.6 mph N/A   Mostly Cloudy
9:33 AM 50.0 °F - 28.4 °F 43% 30.32 in 10.0 mi ENE 11.5 mph 19.6 mph N/A   Mostly Cloudy
9:53 AM 48.2 °F - 28.4 °F 46% 30.32 in 10.0 mi ENE 12.7 mph 18.4 mph N/A   Scattered Clouds
10:14 AM 50.0 °F - 30.2 °F 47% 30.32 in 10.0 mi ENE 6.9 mph - N/A   Scattered Clouds
10:33 AM 50.0 °F - 28.4 °F 43% 30.33 in 10.0 mi ENE 11.5 mph 17.3 mph N/A   Scattered Clouds
10:53 AM 48.2 °F - 30.2 °F 50% 30.34 in 10.0 mi ENE 10.4 mph 18.4 mph N/A   Scattered Clouds
11:13 AM 48.2 °F - 30.2 °F 50% 30.34 in 10.0 mi East 10.4 mph - N/A   Mostly Cloudy
11:33 AM 48.2 °F - 30.2 °F 50% 30.34 in 10.0 mi ENE 9.2 mph - N/A   Mostly Cloudy
11:53 AM 48.2 °F - 30.2 °F 50% 30.34 in 10.0 mi NE 11.5 mph - N/A   Scattered Clouds
12:13 PM 48.2 °F - 30.2 °F 50% 30.34 in 10.0 mi ENE 9.2 mph - N/A   Scattered Clouds
12:33 PM 48.2 °F - 30.2 °F 50% 30.33 in 10.0 mi East 10.4 mph - N/A   Clear
12:53 PM 51.8 °F - 30.2 °F 44% 30.33 in 10.0 mi NE 10.4 mph - N/A   Scattered Clouds
1:13 PM 53.6 °F - 30.2 °F 41% 30.32 in 10.0 mi NNE 11.5 mph - N/A   Scattered Clouds
1:33 PM 55.4 °F - 32.0 °F 41% 30.32 in 10.0 mi NE 3.5 mph - N/A   Scattered Clouds
1:53 PM 55.4 °F - 32.0 °F 41% 30.32 in 10.0 mi East 10.4 mph - N/A   Clear
2:13 PM 55.4 °F - 32.0 °F 41% 30.32 in 10.0 mi East 10.4 mph - N/A   Clear
2:33 PM 55.4 °F - 32.0 °F 41% 30.32 in 10.0 mi East 11.5 mph - N/A   Clear
2:53 PM 55.4 °F - 30.2 °F 38% 30.32 in 10.0 mi East 9.2 mph 16.1 mph N/A   Clear
3:13 PM 53.6 °F - 30.2 °F 41% 30.32 in 10.0 mi ENE 13.8 mph 19.6 mph N/A   Clear
3:33 PM 55.4 °F - 30.2 °F 38% 30.32 in 10.0 mi NE 12.7 mph 17.3 mph N/A   Clear
3:53 PM 55.4 °F - 28.4 °F 36% 30.32 in 10.0 mi ENE 11.5 mph 16.1 mph N/A   Clear
4:13 PM 55.4 °F - 28.4 °F 36% 30.32 in 10.0 mi ENE 15.0 mph 20.7 mph N/A   Clear
4:33 PM 55.4 °F - 26.6 °F 33% 30.32 in 10.0 mi NE 13.8 mph 20.7 mph N/A   Clear
4:53 PM 55.4 °F - 24.8 °F 31% 30.32 in 10.0 mi East 12.7 mph - N/A   Clear
5:13 PM 55.4 °F - 24.8 °F 31% 30.33 in 10.0 mi East 13.8 mph 21.9 mph N/A   Clear
5:33 PM 55.4 °F - 24.8 °F 31% 30.32 in 10.0 mi ENE 12.7 mph 20.7 mph N/A   Clear
5:53 PM 53.6 °F - 23.0 °F 30% 30.31 in 10.0 mi ENE 8.1 mph 17.3 mph N/A   Clear
6:13 PM 53.6 °F - 24.8 °F 33% 30.31 in 10.0 mi ENE 6.9 mph - N/A   Clear
6:33 PM 55.4 °F - 23.0 °F 29% 30.31 in 10.0 mi ENE 13.8 mph 19.6 mph N/A   Clear
6:53 PM 53.6 °F - 21.2 °F 28% 30.31 in 10.0 mi NE 12.7 mph 18.4 mph N/A   Clear
7:13 PM 51.8 °F - 21.2 °F 30% 30.31 in 10.0 mi NE 12.7 mph 17.3 mph N/A   Clear
7:33 PM 51.8 °F - 21.2 °F 30% 30.31 in 10.0 mi NE 9.2 mph 19.6 mph N/A   Clear
7:53 PM 50.0 °F - 21.2 °F 32% 30.30 in 10.0 mi NE 8.1 mph 16.1 mph N/A   Clear
8:13 PM 48.2 °F - 19.4 °F 32% 30.30 in 10.0 mi NE 12.7 mph 16.1 mph N/A   Clear
8:33 PM 48.2 °F - 19.4 °F 32% 30.29 in 10.0 mi ENE 9.2 mph - N/A   Clear
8:53 PM 48.2 °F - 19.4 °F 32% 30.30 in 10.0 mi NE 5.8 mph - N/A   Clear
9:13 PM 46.4 °F 43.5 °F 19.4 °F 34% 30.30 in 10.0 mi NE 5.8 mph - N/A   Clear
9:33 PM 46.4 °F 44.3 °F 21.2 °F 37% 30.30 in 10.0 mi NE 4.6 mph - N/A   Clear
9:53 PM 46.4 °F 43.5 °F 21.2 °F 37% 30.29 in 10.0 mi ENE 5.8 mph - N/A   Clear
10:13 PM 46.4 °F 42.4 °F 21.2 °F 37% 30.30 in 10.0 mi ENE 8.1 mph - N/A   Clear
10:34 PM 46.4 °F - 21.2 °F 37% 30.31 in 10.0 mi Calm Calm - N/A   Clear
10:53 PM 46.4 °F - 21.2 °F 37% 30.30 in 10.0 mi Calm Calm - 0.01 in   Clear
11:13 PM 44.6 °F - 21.2 °F 39% 30.30 in 10.0 mi Calm Calm - 0.01 in   Clear
11:33 PM 44.6 °F - 23.0 °F 43% 30.31 in 10.0 mi Calm Calm - 0.01 in   Clear
11:53 PM 44.6 °F - 24.8 °F 46% 30.30 in 10.0 mi Calm Calm - N/A   Clear